Volver al catálogo

MONITOR-E/SL-19

ActivoCienciaSSO
NORAD 27840·PAYLOAD·🇷🇺 Russia

Lanzado Jun 30, 2003 desde Plesetsk Cosmodrome

Loading…

Próximos Pases (próximas 24 horas)

TLE

ActualizadoSource: Space-Track

Época: Sep 14, 2026, 08:57 UTC

1 27840U 03031A   26257.37345905  .00000046  00000-0  28042-4 0  9996
2 27840  98.6410 237.9526 0098031  75.8191 285.3864 14.39841804218837

Sigue MONITOR-E/SL-19 en tiempo real con AllMySat

Download on the App Store